sat.trackr.live / text

‹ back to catalog

STARLINK-4046

NORAD 52842 · 2022-062N

PAYLOAD ACTIVE UNKNOWN

§ Identity

Operator
Country
US
Launch date
2022-06-17
Launch site
AFETR
Launch vehicle
Mass (kg)
RCS (m²)

Purposes: comms

External: N2YO · Heavens-Above · Gunter

§ Orbital elements

Epoch: 2026-09-19T22:19:59.284128Z

Period
93.85 min
Inclination
53.1599°
Eccentricity
0.0000981
Mean motion
15.34389353 rev/d
Perigee alt
462.1 km
Apogee alt
463.4 km
Semi-major
6,840.9 km
B*
4.1287e-5
RAAN
230.5875°
Arg perigee
102.4038°
Mean anomaly
257.7075°
Rev number
23,526

§ Raw data

STARLINK-40461 52842U 22062N   26262.93054727  .00001019  00000+0  41287-4 0  99942 52842  53.1599 230.5875 0000981 102.4038 257.7075 15.34389353235266

JSON: /api/v1/satellites/52842 · /tle

For live sub-satellite position, see the globe view (requires WebGL).

§ Visibility from observer

Set your observer location to see the next 7 days of passes ≥ 10°. The values pass through the URL so the page stays shareable.

No JS? Fill the form by hand. The geolocation button needs JavaScript.